FW1310 Weather Reports


time (UTC)temp
C
wind
direction
speed
KPH
gust
KPH
rain 1hr
cm
rain 24hr
cm
rain mn
cm
humidity
%
barometer
mb
20260904011003 28 107 4.8 8.0 0.00 0.00 0.00 72 995.6
20260904010503 28 143 4.8 12.9 0.00 0.00 0.00 71 995.5
20260904010004 29 142 3.2 11.3 0.00 0.00 0.00 71 995.3
20260904005504 29 173 6.4 11.3 0.00 0.00 0.00 71 995.4
20260904004503 29 146 4.8 12.9 0.00 0.00 0.00 70 995.3
20260904004004 30 182 4.8 12.9 0.00 0.00 0.00 69 995.4
20260904003503 30 152 4.8 12.9 0.00 0.00 0.00 69 995.2
20260904003003 30 152 9.7 16.1 0.00 0.00 0.00 68 995.2
20260904002503 30 153 4.8 14.5 0.00 0.00 0.00 68 995.1
20260904002003 30 198 8.0 14.5 0.00 0.00 0.00 68 995.2
20260904001504 30 171 6.4 14.5 0.00 0.00 0.00 67 995.3
20260904001003 30 235 8.0 25.7 0.00 0.00 0.00 67 995.4
20260904000003 30 184 4.8 11.3 0.00 0.00 0.00 68 995.2
20260903235503 30 178 8.0 14.5 0.00 0.00 0.00 68 995.2
20260903235003 31 126 9.7 19.3 0.00 0.00 0.00 68 995.1
20260903234003 31 170 8.0 14.5 0.00 0.00 0.00 66 995.1
20260903233503 31 185 9.7 27.4 0.00 0.00 0.00 66 994.9
20260903233004 32 116 8.0 14.5 0.00 0.00 0.00 65 995.1
20260903232503 32 209 8.0 20.9 0.00 0.00 0.00 65 994.8
20260903232004 32 71 8.0 14.5 0.00 0.00 0.00 65 994.9
20260903231503 32 176 8.0 22.5 0.00 0.00 0.00 66 994.6
20260903231003 33 189 8.0 14.5 0.00 0.00 0.00 64 994.6
20260903230503 33 156 12.9 19.3 0.00 0.00 0.00 63 994.8
20260903230004 33 32 9.7 19.3 0.00 0.00 0.00 62 994.5
20260903225003 33 162 9.7 16.1 0.00 0.00 0.00 62 994.6
20260903224503 33 201 9.7 22.5 0.00 0.00 0.00 61 994.5
20260903223503 33 73 9.7 14.5 0.00 0.00 0.00 60 994.5
20260903223004 34 68 8.0 14.5 0.00 0.00 0.00 60 994.6
20260903222503 34 200 6.4 14.5 0.00 0.00 0.00 58 994.6
20260903222003 35 223 6.4 16.1 0.00 0.00 0.00 55 994.5
20260903221504 35 134 9.7 16.1 0.00 0.00 0.00 55 994.4
20260903221004 35 185 8.0 20.9 0.00 0.00 0.00 55 994.2
20260903220505 35 150 4.8 11.3 0.00 0.00 0.00 55 994.4
20260903220003 34 125 9.7 16.1 0.00 0.00 0.00 56 994.4
20260903215503 34 156 9.7 20.9 0.00 0.00 0.00 56 994.3
20260903215003 35 259 9.7 16.1 0.00 0.00 0.00 54 994.4
20260903214503 35 153 4.8 16.1 0.00 0.00 0.00 54 994.3
20260903214003 36 118 6.4 16.1 0.00 0.00 0.00 53 994.4
20260903213504 36 170 8.0 12.9 0.00 0.00 0.00 52 994.5
20260903213003 35 148 4.8 8.0 0.00 0.00 0.00 53 994.4
20260903212503 35 96 6.4 19.3 0.00 0.00 0.00 54 994.6
20260903212003 35 190 6.4 12.9 0.00 0.00 0.00 54 994.7
20260903211503 36 237 3.2 14.5 0.00 0.00 0.00 53 994.7
20260903211004 35 208 4.8 12.9 0.00 0.00 0.00 54 994.7
20260903210503 35 156 6.4 14.5 0.00 0.00 0.00 53 994.8
20260903210003 36 159 6.4 12.9 0.00 0.00 0.00 53 994.8
20260903205504 36 89 3.2 9.7 0.00 0.00 0.00 52 994.6
20260903204503 36 121 6.4 14.5 0.00 0.00 0.00 51 995.0
20260903204004 36 202 4.8 14.5 0.00 0.00 0.00 50 995.0
20260903203503 36 79 3.2 12.9 0.00 0.00 0.00 50 995.1
20260903202503 36 139 3.2 9.7 0.00 0.00 0.00 49 995.4
20260903202003 36 142 4.8 11.3 0.00 0.00 0.00 50 995.4
20260903201504 36 164 3.2 12.9 0.00 0.00 0.00 51 995.5
20260903201004 36 110 4.8 8.0 0.00 0.00 0.00 51 995.5
20260903200503 36 119 3.2 12.9 0.00 0.00 0.00 50 995.5
20260903200003 36 185 4.8 12.9 0.00 0.00 0.00 51 995.7
20260903195504 36 189 4.8 11.3 0.00 0.00 0.00 52 995.5
20260903195003 36 174 4.8 11.3 0.00 0.00 0.00 51 995.6
20260903194503 36 160 6.4 11.3 0.00 0.00 0.00 51 995.6
20260903194004 36 47 3.2 9.7 0.00 0.00 0.00 51 995.8
20260903193503 36 139 4.8 11.3 0.00 0.00 0.00 51 995.8
20260903193003 35 158 3.2 9.7 0.00 0.00 0.00 51 996.0
20260903192503 35 142 3.2 12.9 0.00 0.00 0.00 52 996.1
20260903191503 36 179 8.0 12.9 0.00 0.00 0.00 53 996.2
20260903191003 35 155 3.2 9.7 0.00 0.00 0.00 53 996.3
20260903190504 35 86 3.2 12.9 0.00 0.00 0.00 53 996.5
20260903185003 35 145 3.2 11.3 0.00 0.00 0.00 55 996.5
20260903184503 35 177 4.8 9.7 0.00 0.00 0.00 55 996.6
20260903184004 35 150 3.2 11.3 0.00 0.00 0.00 54 996.8
20260903183503 35 166 1.6 12.9 0.00 0.00 0.00 55 996.7
20260903182503 33 188 4.8 8.0 0.00 0.00 0.00 56 996.9
20260903182004 33 95 3.2 8.0 0.00 0.00 0.00 57 997.1
20260903181504 33 124 3.2 9.7 0.00 0.00 0.00 57 997.0
20260903181003 33 125 4.8 9.7 0.00 0.00 0.00 57 997.0
20260903180503 33 163 4.8 11.3 0.00 0.00 0.00 58 997.2
20260903180003 33 152 4.8 12.9 0.00 0.00 0.00 57 997.2
20260903175505 33 123 3.2 9.7 0.00 0.00 0.00 55 997.3
20260903174503 33 177 3.2 9.7 0.00 0.00 0.00 56 997.4
20260903174003 33 167 3.2 9.7 0.00 0.00 0.00 55 997.5
20260903173503 33 149 4.8 9.7 0.00 0.00 0.00 55 997.4
20260903173003 33 164 1.6 9.7 0.00 0.00 0.00 55 997.5
20260903172503 32 207 4.8 11.3 0.00 0.00 0.00 57 997.8
20260903172004 33 160 4.8 12.9 0.00 0.00 0.00 57 997.7
20260903171503 33 183 6.4 12.9 0.00 0.00 0.00 57 997.8
20260903171003 32 228 4.8 9.7 0.00 0.00 0.00 58 997.8
20260903170503 32 184 6.4 9.7 0.00 0.00 0.00 60 997.6
20260903170004 32 195 4.8 11.3 0.00 0.00 0.00 60 997.5
20260903165503 32 139 4.8 9.7 0.00 0.00 0.00 60 997.4
20260903165003 32 205 4.8 12.9 0.00 0.00 0.00 62 997.4
20260903164503 32 235 8.0 16.1 0.00 0.00 0.00 62 997.6
20260903164004 31 230 6.4 14.5 0.00 0.00 0.00 63 997.6
20260903163504 31 223 6.4 12.9 0.00 0.00 0.00 63 997.6
20260903163003 31 276 4.8 11.3 0.00 0.00 0.00 64 997.7
20260903162503 31 173 3.2 14.5 0.00 0.00 0.00 66 997.7
20260903162004 31 156 6.4 11.3 0.00 0.00 0.00 66 997.6
20260903161503 30 250 3.2 12.9 0.00 0.00 0.00 69 997.7
20260903161003 30 203 6.4 11.3 0.00 0.00 0.00 69 997.6
20260903160503 30 205 3.2 12.9 0.00 0.00 0.00 70 997.7
20260903160003 30 265 6.4 14.5 0.00 0.00 0.00 71 997.5
20260903155503 30 245 6.4 9.7 0.00 0.00 0.00 72 997.6
20260903155004 30 162 8.0 11.3 0.00 0.00 0.00 72 997.4
20260903154504 29 244 8.0 12.9 0.00 0.00 0.00 73 997.6
20260903154004 29 247 8.0 14.5 0.00 0.00 0.00 73 997.7
20260903153504 29 230 4.8 12.9 0.00 0.00 0.00 73 997.5
20260903153004 29 187 4.8 11.3 0.00 0.00 0.00 74 997.5
20260903152504 29 177 8.0 14.5 0.00 0.00 0.00 75 997.4
20260903152004 29 288 8.0 14.5 0.00 0.00 0.00 75 997.4
20260903151504 29 268 8.0 9.7 0.00 0.00 0.00 75 997.5
20260903151003 28 269 9.7 19.3 0.00 0.00 0.00 77 997.7
20260903150503 28 254 8.0 14.5 0.00 0.00 0.00 77 997.5
20260903145503 28 190 6.4 12.9 0.00 0.00 0.00 78 997.5
20260903145003 28 259 8.0 14.5 0.00 0.00 0.00 78 997.5
20260903144504 28 214 8.0 16.1 0.00 0.00 0.00 79 997.4
20260903143503 28 198 6.4 12.9 0.00 0.00 0.00 80 997.6
20260903142503 28 234 6.4 16.1 0.00 0.00 0.00 81 997.4
20260903142003 28 279 8.0 16.1 0.00 0.00 0.00 80 997.5
20260903141503 28 204 9.7 16.1 0.00 0.00 0.00 81 997.4
20260903141003 27 243 9.7 16.1 0.00 0.00 0.00 82 997.4
20260903140503 27 165 8.0 12.9 0.00 0.00 0.00 83 997.5
20260903140003 27 233 6.4 19.3 0.00 0.00 0.00 83 997.5
20260903135503 27 237 9.7 19.3 0.00 0.00 0.00 83 997.4
20260903135003 27 255 4.8 16.1 0.00 0.00 0.00 85 997.4
20260903134504 27 235 6.4 12.9 0.00 0.00 0.00 85 997.4
20260903134003 27 222 8.0 12.9 0.00 0.00 0.00 86 997.4
20260903133503 26 204 6.4 11.3 0.00 0.00 0.00 88 997.5
20260903133004 26 225 6.4 16.1 0.00 0.00 0.00 89 997.4
20260903132503 26 219 8.0 16.1 0.00 0.00 0.00 89 997.4
20260903131503 26 177 6.4 19.3 0.00 0.00 0.00 90 997.2
20260903131004 26 164 8.0 12.9 0.00 0.00 0.00 90 997.5
20260903130003 26 250 4.8 16.1 0.00 0.00 0.00 91 997.3
20260903125503 26 261 9.7 16.1 0.00 0.00 0.00 91 997.2
20260903125003 26 270 8.0 12.9 0.00 0.00 0.00 91 997.1
20260903124503 26 250 6.4 16.1 0.00 0.00 0.00 92 997.2
20260903124003 25 223 4.8 12.9 0.00 0.00 0.00 92 997.2
20260903123504 25 164 4.8 12.9 0.00 0.00 0.00 92 997.4
20260903123003 25 219 4.8 12.9 0.00 0.00 0.00 92 997.2
20260903122504 25 188 4.8 9.7 0.00 0.00 0.00 92 997.2
20260903122003 25 173 4.8 11.3 0.00 0.00 0.00 92 997.1
20260903121503 25 181 8.0 12.9 0.00 0.00 0.00 92 997.0
20260903121003 25 199 8.0 14.5 0.00 0.00 0.00 92 997.1
20260903120003 25 192 6.4 14.5 0.00 0.00 0.00 92 996.8
20260903115503 25 162 4.8 11.3 0.00 0.00 0.00 92 996.8
20260903115003 25 181 6.4 11.3 0.00 0.00 0.00 92 996.7
20260903114503 25 222 4.8 11.3 0.00 0.00 0.00 92 996.9
20260903114003 25 259 4.8 11.3 0.00 0.00 0.00 92 996.8
20260903113003 25 150 6.4 11.3 0.00 0.00 0.00 92 996.9
20260903112503 25 230 6.4 16.1 0.00 0.00 0.00 92 997.1
20260903111503 25 159 8.0 11.3 0.00 0.00 0.00 92 996.8
20260903111003 25 170 8.0 11.3 0.00 0.00 0.00 92 996.8
20260903110004 25 175 8.0 12.9 0.00 0.00 0.00 92 996.7
20260903105503 25 197 4.8 12.9 0.00 0.00 0.00 92 996.7
20260903104503 25 225 4.8 11.3 0.00 0.00 0.00 92 996.6
20260903104003 25 192 4.8 12.9 0.00 0.00 0.00 91 996.6
20260903103503 25 163 8.0 16.1 0.00 0.00 0.00 91 996.6
20260903103003 25 213 8.0 12.9 0.00 0.00 0.00 91 996.6
20260903102003 25 181 4.8 11.3 0.00 0.00 0.00 91 996.7
20260903101503 25 195 6.4 11.3 0.00 0.00 0.00 91 996.6
20260903100503 26 249 4.8 9.7 0.00 0.00 0.00 91 996.5
20260903100004 26 157 4.8 11.3 0.00 0.00 0.00 90 996.5
20260903095504 26 249 9.7 14.5 0.00 0.00 0.00 90 996.3
20260903094503 26 241 6.4 14.5 0.00 0.00 0.00 90 996.6
20260903093503 26 259 8.0 16.1 0.00 0.00 0.00 90 996.8
20260903093003 26 259 8.0 16.1 0.00 0.00 0.00 90 996.7
20260903092503 26 169 4.8 19.3 0.00 0.00 0.00 89 996.8
20260903091003 26 212 4.8 14.5 0.00 0.00 0.00 89 996.7
20260903090503 26 200 8.0 14.5 0.00 0.00 0.00 89 996.7
20260903090003 26 170 9.7 14.5 0.00 0.00 0.00 89 996.9
20260903085503 26 174 8.0 12.9 0.00 0.00 0.00 88 996.9
20260903085003 26 258 4.8 12.9 0.00 0.00 0.00 88 996.8
20260903084504 26 181 8.0 12.9 0.00 0.00 0.00 88 996.9
20260903084004 26 176 8.0 12.9 0.00 0.00 0.00 87 996.8
20260903083503 26 201 8.0 12.9 0.00 0.00 0.00 87 997.0
20260903082003 26 177 4.8 16.1 0.00 0.00 0.00 86 996.8
20260903081503 26 154 6.4 11.3 0.00 0.00 0.00 85 996.8
20260903081004 26 207 8.0 11.3 0.00 0.00 0.00 85 996.9
20260903080003 26 196 4.8 12.9 0.00 0.00 0.00 84 996.8
20260903075003 26 181 6.4 11.3 0.00 0.00 0.00 83 996.9
20260903074503 26 187 4.8 11.3 0.00 0.00 0.00 83 996.9
20260903074004 26 183 4.8 9.7 0.00 0.00 0.00 82 997.1
20260903073503 26 214 8.0 11.3 0.00 0.00 0.00 82 996.9
20260903073003 26 193 6.4 14.5 0.00 0.00 0.00 81 997.0
20260903072003 26 185 9.7 16.1 0.00 0.00 0.00 81 997.0
20260903071004 27 189 8.0 11.3 0.00 0.00 0.00 80 997.2
20260903070503 27 156 8.0 11.3 0.00 0.00 0.00 80 997.1
20260903070004 27 177 6.4 14.5 0.00 0.00 0.00 79 997.1
20260903065503 27 161 8.0 14.5 0.00 0.00 0.00 78 997.1
20260903064004 27 201 8.0 11.3 0.00 0.00 0.00 77 997.3
20260903063503 27 174 9.7 14.5 0.00 0.00 0.00 77 997.4
20260903063003 26 201 6.4 11.3 0.00 0.00 0.00 78 997.1
20260903062003 26 212 3.2 9.7 0.00 0.00 0.00 81 997.5
20260903061003 26 177 8.0 11.3 0.00 0.00 0.00 81 997.4
20260903060504 26 156 6.4 11.3 0.00 0.00 0.00 80 997.5
20260903060003 26 130 6.4 11.3 0.00 0.00 0.00 81 997.4
20260903055503 26 197 4.8 9.7 0.00 0.00 0.00 81 997.4
20260903055003 26 171 4.8 8.0 0.00 0.00 0.00 81 997.5
20260903054503 26 180 3.2 11.3 0.00 0.00 0.00 81 997.4
20260903054003 26 120 4.8 9.7 0.00 0.00 0.00 81 997.3
20260903053504 26 187 4.8 9.7 0.00 0.00 0.00 81 997.2
20260903053004 26 134 3.2 8.0 0.00 0.00 0.00 81 997.4
20260903051003 26 146 8.0 12.9 0.00 0.00 0.00 80 997.3
20260903050504 26 170 4.8 11.3 0.00 0.00 0.00 80 997.1
20260903050003 26 176 4.8 9.7 0.00 0.00 0.00 79 997.3
20260903045504 27 143 3.2 12.9 0.00 0.00 0.00 79 997.2
20260903045004 27 158 3.2 8.0 0.00 0.00 0.00 78 997.3
20260903044504 27 146 3.2 8.0 0.00 0.00 0.00 77 997.3
20260903044003 27 155 3.2 9.7 0.00 0.00 0.00 76 997.3
20260903043503 27 153 4.8 12.9 0.00 0.00 0.00 76 997.3
20260903042503 27 141 4.8 9.7 0.00 0.00 0.00 75 997.2
20260903042003 27 96 4.8 9.7 0.00 0.00 0.00 74 997.2
20260903041504 27 70 3.2 9.7 0.00 0.00 0.00 74 997.2
20260903041003 27 99 4.8 11.3 0.00 0.00 0.00 73 997.2
20260903040503 28 167 6.4 12.9 0.00 0.00 0.00 72 997.3
20260903040003 28 167 8.0 14.5 0.00 0.00 0.00 72 997.4
20260903035503 28 174 4.8 11.3 0.00 0.00 0.00 72 997.2
20260903035003 28 117 8.0 12.9 0.00 0.00 0.00 71 997.3
20260903034504 28 180 4.8 11.3 0.00 0.00 0.00 70 997.5
20260903034003 28 133 4.8 11.3 0.00 0.00 0.00 69 997.4
20260903033503 28 165 6.4 11.3 0.00 0.00 0.00 68 997.3
20260903033003 29 117 4.8 9.7 0.00 0.00 0.00 66 997.0
20260903032503 29 138 4.8 11.3 0.00 0.00 0.00 65 997.1
20260903032003 29 98 4.8 8.0 0.00 0.00 0.00 64 997.1
20260903031503 30 186 4.8 8.0 0.00 0.00 0.00 64 997.0
20260903031003 30 130 3.2 12.9 0.00 0.00 0.00 63 996.9
20260903030504 30 92 4.8 12.9 0.00 0.00 0.00 62 996.7
20260903030003 30 93 3.2 11.3 0.00 0.00 0.00 62 996.7
20260903025503 31 129 1.6 4.8 0.00 0.00 0.00 62 996.8
20260903025003 31 133 1.6 3.2 0.00 0.00 0.00 60 996.5
20260903024503 31 121 1.6 4.8 0.00 0.00 0.00 59 996.3
20260903024003 31 129 1.6 3.2 0.00 0.00 0.00 59 996.1
20260903023004 31 127 1.6 4.8 0.00 0.00 0.00 59 996.0
20260903022504 31 139 3.2 4.8 0.00 0.00 0.00 58 996.2
20260903022003 31 124 1.6 3.2 0.00 0.00 0.00 58 996.0
20260903021503 31 136 1.6 4.8 0.00 0.00 0.00 58 996.0
20260903021003 31 138 1.6 3.2 0.00 0.00 0.00 58 995.9
20260903020503 31 133 1.6 3.2 0.00 0.00 0.00 57 995.7
20260903020003 31 130 1.6 4.8 0.00 0.00 0.00 57 995.7
20260903015003 31 140 1.6 1.6 0.00 0.00 0.00 58 995.6
20260903014004 31 151 1.6 3.2 0.00 0.00 0.00 58 995.5
20260903013503 31 123 0.0 3.2 0.00 0.00 0.00 59 995.3
20260903013003 31 141 1.6 3.2 0.00 0.00 0.00 58 995.3
20260903012504 31 104 1.6 1.6 0.00 0.00 0.00 58 995.3
20260903012003 32 119 1.6 1.6 0.00 0.00 0.00 57 995.5